I2HLY-3 Weather Reports


Display with metric or nautical units.
time (UTC)temp
F
wind
direction
speed
MPH
gust
MPH
rain 1hr
in
rain 24hr
in
rain mn
in
humidity
%
barometer
mb
20260905183226 81 250 0.0 2.0 0.00 0.00 0.00 64 1014.9
20260905181728 83 250 1.0 2.0 0.00 0.00 0.00 60 1014.6
20260905180238 84 250 1.0 3.0 0.00 0.00 0.00 57 1014.5
20260905174731 85 241 1.0 5.0 0.00 0.00 0.00 56 1014.3
20260905173237 86 217 2.0 5.0 0.00 0.00 0.00 54 1014.2
20260905171726 87 311 3.0 6.0 0.00 0.00 0.00 53 1014.2
20260905170231 87 304 2.0 4.0 0.00 0.00 0.00 51 1014.1
20260905164723 88 303 2.0 9.0 0.00 0.00 0.00 50 1014.0
20260905163236 89 292 2.0 7.0 0.00 0.00 0.00 49 1014.0
20260905161728 90 219 3.0 7.0 0.00 0.00 0.00 49 1014.0
20260905160225 90 245 3.0 9.0 0.00 0.00 0.00 47 1013.9
20260905154727 90 248 3.0 8.0 0.00 0.00 0.00 48 1013.9
20260905153227 91 214 2.0 8.0 0.00 0.00 0.00 46 1013.8
20260905151727 91 236 5.0 10.0 0.00 0.00 0.00 47 1013.9
20260905150225 91 258 4.0 10.0 0.00 0.00 0.00 45 1013.9
20260905144727 91 319 4.0 7.0 0.00 0.00 0.00 45 1013.9
20260905143226 91 229 2.0 9.0 0.00 0.00 0.00 45 1013.9
20260905141732 91 213 3.0 9.0 0.00 0.00 0.00 46 1014.0
20260905140234 91 306 4.0 12.0 0.00 0.00 0.00 44 1014.2
20260905134735 90 187 3.0 10.0 0.00 0.00 0.00 46 1014.2
20260905133233 90 231 3.0 9.0 0.00 0.00 0.00 47 1014.4
20260905131734 90 181 4.0 10.0 0.00 0.00 0.00 46 1014.6
20260905130231 90 248 3.0 7.0 0.00 0.00 0.00 46 1014.7
20260905124728 90 175 5.0 7.0 0.00 0.00 0.00 49 1014.8
20260905123220 89 161 3.0 7.0 0.00 0.00 0.00 49 1014.9
20260905121734 89 310 2.0 8.0 0.00 0.00 0.00 46 1015.0
20260905120228 89 314 2.0 10.0 0.00 0.00 0.00 50 1015.1
20260905114732 89 288 3.0 6.0 0.00 0.00 0.00 51 1015.2
20260905113238 90 201 4.0 9.0 0.00 0.00 0.00 51 1015.3
20260905111737 89 243 3.0 9.0 0.00 0.00 0.00 50 1015.4
20260905110224 89 243 4.0 8.0 0.00 0.00 0.00 49 1015.4
20260905104736 88 165 3.0 8.0 0.00 0.00 0.00 51 1015.4
20260905103235 89 306 3.0 8.0 0.00 0.00 0.00 51 1015.5
20260905101728 88 199 4.0 7.0 0.00 0.00 0.00 53 1015.6
20260905100236 88 169 2.0 5.0 0.00 0.00 0.00 51 1015.6
20260905094724 87 180 4.0 7.0 0.00 0.00 0.00 52 1015.6
20260905093223 86 196 2.0 5.0 0.00 0.00 0.00 59 1015.6
20260905091730 85 157 3.0 5.0 0.00 0.00 0.00 58 1015.7
20260905090225 85 290 1.0 3.0 0.00 0.00 0.00 55 1015.7
20260905084738 83 292 0.0 2.0 0.00 0.00 0.00 61 1015.7
20260905083235 82 292 2.0 3.0 0.00 0.00 0.00 63 1015.5
20260905081731 82 292 1.0 4.0 0.00 0.00 0.00 60 1015.4
20260905080228 81 229 1.0 3.0 0.00 0.00 0.00 59 1015.4
20260905074736 80 229 1.0 1.0 0.00 0.00 0.00 63 1015.3
20260905073222 80 229 1.0 3.0 0.00 0.00 0.00 61 1015.2
20260905071719 80 229 1.0 2.0 0.00 0.00 0.00 62 1015.2
20260905070228 80 229 0.0 2.0 0.00 0.00 0.00 61 1015.2
20260905064724 78 229 1.0 3.0 0.00 0.00 0.00 67 1015.2
20260905063237 75 231 2.0 3.0 0.00 0.00 0.00 76 1015.2
20260905061723 71 311 0.0 0.0 0.00 0.00 0.00 82 1015.2
20260905060235 69 311 0.0 0.0 0.00 0.00 0.00 85 1015.1
20260905054738 66 312 0.0 0.0 0.00 0.00 0.00 91 1015.1
20260905053222 63 311 0.0 0.0 0.00 0.00 0.00 91 1015.0
20260905051720 63 311 0.0 2.0 0.00 0.00 0.00 91 1014.9
20260905050225 63 312 0.0 0.0 0.00 0.00 0.00 91 1014.6
20260905044738 63 312 0.0 0.0 0.00 0.00 0.00 91 1014.3
20260905043225 63 312 0.0 0.0 0.00 0.00 0.00 90 1014.3
20260905041734 64 311 0.0 0.0 0.00 0.00 0.00 89 1014.2
20260905040221 64 311 0.0 0.0 0.00 0.00 0.00 89 1014.3
20260905034725 64 312 0.0 0.0 0.00 0.00 0.00 89 1014.4
20260905033226 64 312 0.0 0.0 0.00 0.00 0.00 88 1014.5
20260905031722 64 311 0.0 0.0 0.00 0.00 0.00 89 1014.5
20260905030232 64 311 0.0 0.0 0.00 0.00 0.00 88 1014.6
20260905024726 64 311 0.0 0.0 0.00 0.00 0.00 87 1014.5
20260905023237 64 311 1.0 2.0 0.00 0.00 0.00 86 1014.7
20260905021728 65 311 0.0 0.0 0.00 0.00 0.00 85 1014.8
20260905020237 65 311 0.0 2.0 0.00 0.00 0.00 84 1014.8
20260905014728 65 311 0.0 2.0 0.00 0.00 0.00 84 1014.8
20260905013228 66 312 0.0 2.0 0.00 0.00 0.00 83 1014.9
20260905011734 66 311 1.0 2.0 0.00 0.00 0.00 81 1014.8
20260905010236 67 311 0.0 2.0 0.00 0.00 0.00 81 1014.8
20260905004727 67 311 0.0 3.0 0.00 0.00 0.00 79 1015.0
20260905003230 68 311 0.0 2.0 0.00 0.00 0.00 78 1015.0
20260905001730 68 311 0.0 2.0 0.00 0.00 0.00 78 1015.1
20260905000223 68 311 2.0 5.0 0.00 0.00 0.00 76 1015.2
20260904233235 72 314 1.0 2.0 0.00 0.00 0.00 67 1015.3
20260904231736 73 314 2.0 4.0 0.00 0.00 0.00 65 1015.4
20260904230222 71 317 4.0 8.0 0.00 0.00 0.00 67 1015.5
20260904224730 69 308 1.0 3.0 0.00 0.00 0.00 74 1015.3
20260904223228 70 308 2.0 4.0 0.00 0.00 0.00 71 1015.4
20260904221724 70 307 2.0 3.0 0.00 0.00 0.00 69 1015.4
20260904220220 71 311 2.0 4.0 0.00 0.00 0.00 71 1015.5
20260904214729 71 325 2.0 5.0 0.00 0.00 0.00 68 1015.5
20260904213234 71 309 2.0 4.0 0.00 0.00 0.00 69 1015.7
20260904211733 72 321 1.0 3.0 0.00 0.00 0.00 70 1015.6
20260904210235 72 320 2.0 3.0 0.00 0.00 0.00 69 1015.7
20260904204738 73 320 2.0 4.0 0.00 0.00 0.00 70 1015.8
20260904203225 73 316 3.0 4.0 0.00 0.00 0.00 64 1015.8
20260904201730 74 313 1.0 3.0 0.00 0.00 0.00 67 1015.8
20260904200238 74 304 2.0 3.0 0.00 0.00 0.00 71 1015.7
20260904194733 74 271 1.0 2.0 0.00 0.00 0.00 74 1015.6
20260904193237 75 271 0.0 3.0 0.00 0.00 0.00 74 1015.7
20260904191724 75 189 1.0 3.0 0.00 0.00 0.00 74 1015.7
20260904190225 76 188 1.0 2.0 0.00 0.00 0.00 72 1015.5
20260904184727 77 188 0.0 0.0 0.00 0.00 0.00 70 1015.3